Flag for United Arab Emirates Weather past 2 weeks in Ras al-Khaimah, Ras al-Khaimah, United Arab Emirates

Now
81 °F

Clear.


Feels Like: 83 °F
Forecast: 72 / 99 °F
Wind: 7 mph from Southwest

Location: Ras Al Khaimah International Airport

Current Time: Apr 26, 2015 at 12:08:01 AM

Latest Report: Apr 25, 2015 at 11:00 PM


Visibility: 4 mi

Pressure: 29.83 "Hg

Humidity: 66%

Dew point: 68 °F

Location of Ras al-KhaimahLocation

Historic Weather in Ras al-Khaimah — Graph

°F

Ras al-Khaimah temperature yesterday

Maximum temperature yesterday: 100 °F (at 12:00 PM)
Minimum temperature yesterday: 75 °F (at 3:00 AM)
Average temperature yesterday: 87 °F

Past Weeks' High & Low Weather Summary

 TemperatureHumidityPressure
High106 °F (Apr 12, 12:00 PM)94% (Apr 22, 5:00 AM)30.66 "Hg (Apr 22, 5:00 AM)
Low63 °F (Apr 23, 6:00 AM)8% (Apr 22, 12:00 PM)29.74 "Hg (Apr 18, 2:00 PM)
Average83 °F45%29.85 "Hg
* Reported Apr 10 11:00 PM — Apr 25 11:00 PM, Ras al-Khaimah, Weather by CustomWeather, © 2015

Note: Actual official high and low records may vary slightly from our data, if they occured in-between our weather recording intervals... More about our weather records

Advertising

Ras al-Khaimah weather history for previous 24 hours

 ConditionsComfort  
Time TempWeatherWind HumidityBarometerVisibility
11:00 PM
Sat, Apr 25
81 °FClear.7 mph66%29.83 "Hg4 mi
10:00 PM81 °FClear.5 mph66%29.80 "Hg4 mi
9:00 PM82 °FClear.5 mph62%29.80 "Hg4 mi
8:00 PM84 °FClear.3 mph58%29.77 "Hg4 mi
7:00 PM86 °FClear.8 mph59%29.77 "Hg4 mi
6:00 PM90 °FDuststorm.7 mph52%29.74 "Hg3 mi
5:00 PM93 °FDuststorm.9 mph41%29.74 "Hg3 mi
4:00 PM95 °FDuststorm.10 mph39%29.74 "Hg3 mi
3:00 PM95 °FDuststorm.15 mph41%29.74 "Hg2 mi
2:00 PM100 °FClear.13 mph35%29.77 "Hg4 mi
1:00 PM100 °FClear.8 mph29%29.77 "Hg4 mi
12:00 PM100 °FClear.8 mph27%29.80 "Hg5 mi
11:00 AM97 °FClear.8 mph27%29.80 "Hg5 mi
10:00 AM95 °FSunny.8 mph25%29.83 "Hg10 mi
9:00 AM93 °FClear.9 mph21%29.83 "Hg4 mi
8:00 AM86 °FClear.3 mph22%29.83 "Hg4 mi
7:00 AM77 °FClear.7 mph28%29.80 "Hg4 mi
6:00 AM75 °FClear.6 mph29%29.80 "Hg5 mi
5:00 AM75 °FClear.6 mph29%29.77 "Hg5 mi
3:00 AM75 °FClear.6 mph34%29.80 "Hg5 mi
2:00 AM77 °FClear.3 mph32%29.77 "Hg5 mi
1:00 AM79 °FClear.6 mph34%29.80 "Hg5 mi
12:00 AM79 °FClear.6 mph34%29.80 "Hg5 mi
Weather by CustomWeather, © 2015

See weather overviewHow to use our weather pages